Location: ???????
(55.3754°N, 39.3545°E)
Time: 08:23:11
(UTC+00:00)

Cosmos 968 Rocket - Pass Details

Date: 14 April 2026
Orbit: 736 x 765 km, 74.0° (Epoch: 9 May)

Event Time Altitude Azimuth Distance (km) Brightness Sun altitude
Rises 22:54:06 0° 328° (NNW) 3,218 7.2 -22.2°
Reaches altitude 10° 22:56:39 10° 319° (NW) 2,293 6.2 -22.0°
Enters shadow 23:01:04 33° 261° (W) 1,255 4.3 -21.8°
